Regional Weather Roundup
Issued by NWS Bismarck, ND

Home | Current Version | Previous Version | Text Only | Print | Product List | Glossary On
Versions: 1 2 3 4 5 6 7 8 9 10 11 12 13 14 15 16 17 18 19 20 21 22 23 24 25 26 27 28 29 30 31 32 33 34 35 36 37 38 39 40 41 42 43 44 45 46 47 48 49 50
809
ASUS43 KBIS 200910
RWRBIS

NWR BROADCAST TEXT
NATIONAL WEATHER SERVICE BISMARCK ND
400 AM CDT FRI OCT 20 2017

NOTE: "FAIR" INDICATES FEW OR NO CLOUDS BELOW 12,000 FEET WITH NO
SIGNIFICANT WEATHER AND/OR OBSTRUCTIONS TO VISIBILITY.


CITY           SKY/WX    TMP DP  RH WIND       PRES   REMARKS
WILLISTON      CLEAR     40  31  70 N5        29.47F
MINOT          FAIR      44  35  70 CALM      29.51F
MINOT AFB      FAIR      41  33  74 SE8       29.50F
BISMARCK       CLEAR     44  39  82 E10       29.55F
DICKINSON      CLEAR     45  32  60 S12       29.48F
GARRISON         N/A     43  36  76 E6        29.51F
HETTINGER ARPT CLEAR     49  28  44 VRB3      29.54F
JAMESTOWN      FAIR      50  44  80 S12       29.61F
CARRINGTON     FAIR      45  39  81 SE9       29.61F
HAZEN          FAIR      43  37  81 E7        29.52F
LINTON           N/A     54  41  62 SE13      29.59F
RUGBY            N/A     41  37  87 E7        29.55F
STANLEY        FAIR      45  32  61 E5        29.53F
TIOGA          FAIR      43  30  61 MISG      29.51F
WATFORD CITY   FAIR      39  30  70 CALM      29.47F
$$

CITY           SKY/WX    TMP DP  RH WIND       PRES   REMARKS
GRAND FORKS    FAIR      47  42  83 SE8       29.63F
GRAND FORKS AF FAIR      43  40  88 S7        29.63F
DEVILS LAKE    FAIR      47  42  83 SE9       29.60F
FARGO          FAIR      57  48  72 S13       29.66F
CANDO          FAIR      36  36 100 E7        29.61S
CAVALIER       FAIR      41  37  87 CALM      29.62F
GRAFTON        FAIR      41  37  87 SE9       29.65F
GWINNER        SUNNY     57  50  77 S13G18    29.66F
LANGDON        FAIR      43  37  81 S8        29.61F
ROLLA          FAIR      39  30  70 S6        29.59F
WALHALLA       FAIR     N/A N/A N/A SE6       29.61F
$$

CITY           SKY/WX    TMP DP  RH WIND       PRES   REMARKS
ABERDEEN       CLEAR     56  49  77 S16       29.67F
MOBRIDGE       CLEAR     59  49  69 S12       29.57F
BUFFALO          N/A     49  25  39 SW9       29.48F
RAPID CITY     PTCLDY    52  26  36 CALM      29.63F
GLASGOW        MOCLDY    49  30  48 SE15      29.40F
WOLF POINT     MOCLDY    45  28  51 NE5       29.43F
GLENDIVE       CLEAR     46  29  51 CALM      29.47F
MILES CITY     CLEAR     47  32  56 SE12      29.48F
BAKER          CLEAR     41  29  62 CALM      29.51F
$$

CITY           SKY/WX    TMP DP  RH WIND       PRES   REMARKS
BILLINGS       CLEAR     56  21  25 W13       29.50F
GREAT FALLS    PTCLDY    57  17  21 SW10      29.40F
REGINA         PTCLDY    43  28  56 SE12      29.43F
ESTEVAN        PTCLDY    45  30  57 E6        29.48F
$$





USA.gov is the U.S. government's official web portal to all federal, state and local government web resources and services.